GFSGL_850_thetae_093.txt.gz
Theta_e
322 320 320 320 320 320 319 318 314 311 310 313 313 313 312 313 316 317 319 318 318 318 317 316 315 315 316 316 316 317 317 317 318 318 319 318 318 319 319 318 318 317 316
321 321 320 321 320 319 319 319 319 315 312 311 312 312 312 315 315 317 319 318 318 317 316 316 316 316 317 317 317 317 318 317 318 318 318 319 320 320 319 319 318 317 317
321 322 321 320 320 321 320 320 320 318 315 314 312 314 313 314 314 316 318 318 319 318 318 318 318 317 318 317 318 318 319 318 318 319 319 319 320 319 319 318 317 316 315
321 323 322 322 322 320 321 321 321 321 320 317 315 314 314 315 316 318 320 319 319 318 318 319 319 319 318 319 320 321 320 320 320 321 320 320 318 316 315 314 313 311 310
322 322 321 323 323 322 322 322 322 321 321 320 320 318 315 315 315 318 318 319 318 319 319 319 320 320 320 321 322 320 320 320 322 320 319 316 313 311 310 309 306 306 304
326 324 324 322 322 325 323 322 323 323 322 322 322 321 319 317 316 317 316 316 317 319 321 321 321 321 321 321 321 321 321 322 319 316 313 310 308 305 303 303 302 301 300
328 326 325 326 325 323 322 323 323 323 324 324 323 322 322 321 321 320 319 319 320 321 321 321 322 322 321 321 321 321 318 318 315 311 308 305 302 300 300 299 299 299 299
329 328 325 326 327 326 325 323 322 322 322 324 323 323 322 322 323 322 322 323 323 323 322 322 322 321 320 319 312 311 311 308 306 304 302 300 299 297 298 297 295 293 291
330 329 327 325 327 327 327 326 326 324 324 324 323 322 323 323 323 323 323 323 323 322 321 321 320 314 309 307 307 305 303 301 300 298 297 297 295 292 289 287 286 288 288
330 330 329 327 326 326 327 327 327 327 326 325 325 324 322 322 322 323 324 324 322 321 320 318 309 306 301 300 300 300 299 297 296 295 290 286 286 288 288 287 285 285 284
329 328 329 328 327 327 327 327 326 326 326 326 325 325 324 323 322 322 322 321 321 319 309 301 299 298 297 298 296 297 296 294 291 289 288 288 286 285 284 284 283 283 283
325 329 328 328 328 327 327 326 326 326 326 325 324 323 319 319 318 318 319 319 315 310 302 298 294 295 296 295 296 294 292 291 290 288 286 284 284 284 283 283 282 282 281
320 321 321 323 324 324 327 326 325 323 323 323 320 318 313 308 308 303 301 302 299 300 296 293 293 292 292 292 291 290 289 288 286 284 283 282 282 281 280 279 279 278 277
318 317 315 314 314 316 318 320 320 319 311 312 304 303 298 294 293 292 295 294 293 293 292 293 291 290 289 289 287 286 284 283 283 281 280 278 277 277 276 275 275 274 274
311 310 307 306 305 305 305 304 307 304 303 300 298 291 292 292 292 292 291 293 293 291 290 289 287 286 286 284 283 282 280 279 278 278 277 276 275 274 274 273 273 272 272
308 306 302 298 296 294 294 291 293 295 295 292 293 293 291 292 291 293 293 290 290 289 289 286 285 284 283 281 280 279 278 277 275 274 274 273 273 272 272 272 271 271 271
305 303 301 298 295 293 291 290 288 289 290 290 291 292 290 289 289 288 288 287 286 285 286 284 282 280 279 278 277 276 275 274 273 273 272 272 271 271 271 271 270 270 269
300 298 297 295 294 292 290 288 288 288 288 287 287 288 287 286 286 285 285 285 284 283 281 280 278 277 276 275 275 274 273 273 273 272 271 271 271 271 270 270 269 269 269
295 294 293 292 291 289 290 290 289 288 287 286 284 284 284 284 284 283 282 282 279 277 276 276 275 275 274 274 273 273 272 272 271 271 271 270 270 270 269 269 269 269 269
291 290 290 289 289 288 287 287 286 285 283 282 282 281 281 281 280 278 277 276 276 275 275 274 274 274 273 273 272 272 271 271 271 271 270 270 270 270 270 270 270 269 269
289 289 288 287 287 286 285 284 283 282 281 280 279 278 277 277 276 275 275 275 274 274 274 273 273 272 272 272 271 271 271 271 271 271 270 270 271 271 271 270 270 269 269
286 286 285 284 283 282 282 281 280 280 279 278 276 275 275 275 275 274 274 273 273 272 272 272 272 272 271 271 271 271 271 271 271 271 271 271 270 270 270 270 270 270 269
285 284 284 283 282 281 280 279 278 277 276 275 274 274 274 274 273 272 272 272 272 272 271 271 271 271 271 271 271 271 270 271 271 271 271 270 270 270 270 270 270 270 269
284 283 282 280 278 278 277 276 275 274 274 273 273 273 272 273 273 272 272 271 271 271 271 271 271 271 271 271 271 271 270 270 270 270 270 270 270 270 270 270 270 270 270
277 277 276 276 275 275 274 274 273 273 273 272 272 272 271 271 271 272 271 271 271 271 271 271 271 271 271 270 271 270 270 270 270 270 270 270 270 270 270 271 270 270 270
276 276 275 274 274 274 273 273 272 272 272 272 272 272 271 271 271 271 271 271 271 270 271 271 270 270 270 270 270 270 270 270 270 269 270 270 270 270 270 270 270 270 269

GFSGL_850_thetae_096.txt.gz
Theta_e
318 321 321 320 319 317 317 317 316 315 315 315 315 315 315 314 314 313 314 315 315 317 318 319 319 318 318 317 316 316 316 317 317 316 316 316 317 317 317 318 319 319 319
318 319 320 320 319 318 318 318 317 315 313 315 314 314 315 317 315 314 315 315 316 317 318 319 318 318 317 316 315 316 316 317 317 318 317 318 318 319 318 319 318 319 318
320 318 320 320 320 319 319 319 318 317 313 312 312 313 313 316 316 316 316 317 317 318 318 318 318 317 317 316 316 317 317 317 317 319 319 320 320 320 320 317 318 316 317
324 318 321 320 320 319 320 320 319 319 318 315 313 311 313 313 313 313 312 313 316 317 318 318 318 318 318 318 317 318 318 319 319 320 321 320 320 320 319 317 315 314 314
326 321 318 322 320 320 320 319 319 319 319 319 317 314 311 312 313 312 312 313 314 314 317 318 318 318 318 318 318 319 320 320 321 321 320 320 320 318 315 313 311 309 308
328 325 321 318 323 321 320 320 319 320 320 320 320 319 316 314 313 312 313 314 315 317 319 319 318 318 318 319 319 320 320 320 322 321 321 320 315 310 309 307 305 304 303
328 327 325 320 319 320 321 320 320 319 320 321 321 321 320 319 319 318 315 314 314 315 315 317 318 318 317 321 320 320 320 321 321 319 315 311 307 306 303 300 299 299 298
328 327 326 325 322 321 320 321 321 321 320 320 321 322 322 322 321 321 320 318 316 315 315 316 316 318 320 321 321 320 319 317 313 311 307 308 302 299 298 298 298 297 294
328 327 326 326 326 325 324 323 322 322 323 322 323 323 323 322 322 321 321 321 320 319 319 319 320 320 319 318 317 313 312 305 300 302 300 295 297 296 297 297 295 293 292
326 326 325 325 326 326 325 326 326 324 323 322 322 323 324 324 324 323 322 322 323 322 321 319 318 317 310 308 305 302 302 297 296 296 296 296 294 294 293 291 289 287 286
323 325 326 326 325 326 326 326 327 326 325 324 323 323 323 324 324 324 323 323 323 322 317 311 310 305 303 299 298 297 298 295 295 294 292 291 290 289 287 286 285 285 284
319 319 322 326 326 325 326 326 326 327 326 326 325 324 322 320 319 320 321 320 318 314 304 297 291 292 294 295 295 295 294 292 290 289 287 286 284 284 283 283 282 281 280
316 317 318 317 320 323 323 324 325 324 324 322 320 318 314 310 309 309 306 306 304 301 294 292 292 293 294 294 292 291 291 288 287 286 284 282 281 281 279 278 277 277 276
313 315 314 315 315 314 312 311 309 310 313 317 312 307 304 299 298 295 296 294 294 294 294 294 294 293 294 291 289 288 287 285 285 282 280 279 278 277 277 277 276 276 276
307 305 309 312 311 309 306 301 300 297 294 296 294 295 295 293 293 293 294 295 296 295 293 290 290 288 288 287 285 284 282 280 278 278 277 276 276 276 275 275 274 274 273
303 301 297 296 299 303 303 299 296 294 294 292 293 293 292 293 292 292 292 291 292 291 290 288 286 285 284 282 281 279 278 277 277 276 275 275 275 274 274 273 272 272 272
302 300 297 294 293 293 292 292 293 291 291 291 291 290 288 289 291 291 290 288 287 287 289 286 284 283 281 279 278 277 276 275 274 274 274 274 273 272 272 272 272 272 272
299 297 296 295 292 291 290 290 288 288 288 287 287 289 288 287 287 287 287 287 286 285 285 283 281 279 277 276 275 274 274 273 273 273 272 272 272 272 272 272 272 272 271
296 295 293 291 290 289 289 288 287 287 286 285 284 285 285 285 285 285 284 285 284 280 278 277 276 276 275 274 274 273 273 273 272 272 272 272 272 272 272 271 271 271 271
292 292 291 290 289 288 288 288 286 285 285 284 284 283 283 284 283 281 279 278 278 277 276 276 275 274 273 273 273 273 273 272 272 272 271 271 271 271 271 271 271 271 271
289 288 288 288 288 287 287 286 285 284 284 283 283 281 280 279 277 277 276 275 275 275 274 274 273 273 272 272 272 272 272 272 271 271 272 271 271 271 271 271 271 271 271
288 287 286 286 285 285 284 284 284 283 282 280 277 276 276 276 275 275 274 274 273 273 273 272 272 272 272 272 272 272 272 272 272 271 271 271 271 271 271 271 271 271 271
286 286 285 285 284 283 283 281 281 280 278 276 275 275 274 274 274 273 273 272 272 273 273 272 272 272 272 272 272 272 271 271 271 271 271 270 271 271 271 271 272 272 271
284 283 283 283 281 280 278 277 276 275 275 275 274 274 273 273 273 273 273 272 272 272 272 272 272 271 272 272 271 271 270 270 270 270 270 271 271 271 271 272 271 271 271
281 280 279 278 277 276 276 275 275 274 274 273 273 273 273 272 272 272 272 271 271 271 271 271 271 271 271 270 270 270 270 270 270 270 270 270 271 271 271 271 271 271 271
276 276 276 275 275 274 274 274 273 273 273 272 272 272 272 271 271 271 271 270 270 270 270 270 270 270 270 270 270 270 270 270 270 270 270 270 271 271 271 271 271 271 270

GFSGL_850_thetae_099.txt.gz
Theta_e
319 318 320 321 321 321 321 320 320 320 321 321 320 319 317 316 316 315 315 314 314 315 315 314 313 315 317 317 317 318 318 317 317 316 316 316 316 316 317 317 318 318 318
320 318 320 320 320 320 320 320 319 318 318 317 319 319 318 318 317 316 317 314 314 315 316 315 316 317 318 317 317 318 318 316 316 316 316 316 317 317 317 319 319 320 319
323 319 319 320 321 320 319 319 317 317 317 315 316 317 317 317 317 316 316 314 314 314 315 315 316 317 318 318 318 318 317 316 316 317 317 317 318 318 319 319 319 318 318
325 322 318 319 320 320 320 318 318 318 318 316 314 315 316 315 315 315 315 314 314 314 315 315 317 317 318 318 317 317 317 318 318 318 318 319 319 319 318 319 318 318 317
325 324 320 318 319 320 320 319 319 318 318 318 315 313 315 314 313 314 316 316 315 315 316 317 316 316 318 318 318 318 318 318 318 318 319 319 319 319 320 319 319 316 312
326 324 322 319 319 319 319 319 319 319 319 318 317 316 313 313 312 312 314 316 316 315 313 312 312 314 314 315 319 319 317 318 318 319 319 320 320 320 318 316 312 310 309
326 326 325 323 320 318 319 319 319 319 319 318 318 318 318 318 317 313 312 313 313 313 313 312 312 314 315 318 319 318 318 319 317 319 320 319 316 311 309 309 307 303 302
327 325 325 324 323 320 320 319 318 319 319 318 318 319 320 319 319 319 316 313 312 312 312 312 313 313 314 315 316 317 318 317 317 319 317 313 311 304 302 299 297 297 295
324 324 324 326 325 324 322 320 320 318 318 318 319 319 319 320 320 320 320 319 318 317 317 317 316 315 316 316 316 316 316 312 312 307 306 305 302 298 298 296 294 294 293
324 323 324 324 324 325 325 324 322 321 321 321 319 319 319 319 320 321 322 322 321 321 320 318 318 317 316 316 316 309 305 299 298 299 298 297 296 296 296 295 295 292 290
318 320 321 322 323 323 324 325 325 323 323 321 321 322 321 321 321 321 322 323 322 322 321 318 315 315 315 309 300 300 299 296 294 294 294 295 294 292 293 289 288 287 285
315 316 317 318 321 323 324 323 323 323 324 323 322 321 321 321 322 322 322 322 322 321 313 305 301 296 296 296 296 296 295 295 296 295 293 291 289 289 288 286 282 280 279
312 313 314 314 316 317 319 322 322 322 320 319 318 315 305 301 309 313 315 312 311 305 297 294 293 293 295 295 295 292 291 291 290 289 288 287 286 282 279 278 278 277 276
308 308 308 309 308 308 310 310 312 314 312 306 300 301 301 298 296 297 298 302 298 298 294 294 295 294 295 292 289 288 288 287 288 286 283 280 279 278 277 277 277 276 276
304 303 303 302 301 301 301 301 301 301 302 303 301 298 294 292 289 290 290 292 293 294 296 294 291 290 288 287 287 287 285 282 280 279 278 278 277 276 276 276 276 275 275
303 300 299 298 296 296 297 296 294 293 293 294 295 297 295 296 295 293 294 293 291 289 290 290 289 287 286 285 284 280 279 278 277 277 276 276 275 275 275 275 274 274 274
299 298 298 296 295 293 291 290 291 289 290 288 288 288 288 290 291 292 293 291 289 289 290 287 286 285 284 281 279 278 277 276 276 275 275 275 274 274 274 274 274 274 273
296 296 296 294 293 292 291 290 289 290 289 289 289 290 289 288 287 287 287 287 286 286 286 285 283 280 278 277 277 276 275 275 274 274 274 274 273 273 273 273 273 273 273
293 293 293 292 292 291 290 290 290 289 288 287 285 286 285 286 285 285 284 286 286 284 281 279 277 277 276 275 275 274 274 274 273 273 273 273 273 273 272 272 272 272 272
292 291 291 290 289 289 289 289 288 287 286 285 285 285 284 284 284 283 281 279 278 277 277 276 276 275 275 274 274 273 273 273 273 272 272 272 272 272 272 272 272 272 272
289 289 289 289 288 288 288 287 286 286 285 285 284 282 281 280 278 278 277 277 277 276 275 275 274 274 273 273 273 272 272 272 272 271 271 271 271 271 271 271 272 272 272
287 287 287 287 286 285 285 285 284 284 284 282 279 277 276 277 277 276 276 275 275 274 274 274 273 273 273 273 272 272 272 271 271 271 271 271 271 271 271 272 272 272 272
286 286 285 285 284 284 284 283 282 280 278 277 276 276 275 275 275 275 274 274 273 273 273 273 272 272 272 272 272 271 271 271 271 271 270 270 271 271 271 271 272 272 272
284 284 284 284 282 281 280 279 277 276 276 275 274 274 274 274 274 273 273 273 272 272 272 272 272 272 271 271 271 271 271 270 270 271 271 271 271 271 271 271 271 271 271
282 282 280 279 278 277 276 276 275 275 274 274 273 273 273 272 272 272 272 271 271 271 271 270 270 271 271 271 271 270 270 270 270 270 270 270 270 270 270 271 271 271 271
277 277 277 276 276 275 275 274 274 273 273 273 272 272 272 271 271 271 271 271 271 271 271 271 271 271 271 270 270 270 270 270 270 270 270 270 270 270 270 270 271 271 271

GFSGL_850_thetae_105.txt.gz
Theta_e
326 327 326 326 318 320 320 320 320 320 319 319 320 321 321 322 320 320 319 313 310 310 315 314 317 314 313 312 312 314 315 315 315 315 316 315 316 317 316 316 315 315 316
325 326 326 323 317 320 320 320 320 320 319 319 319 318 319 320 320 319 318 316 311 313 315 312 315 314 313 312 313 314 314 314 314 314 315 315 315 316 316 317 316 316 316
324 326 326 320 318 320 320 320 320 320 319 320 319 319 318 318 318 317 316 314 311 313 312 314 314 314 313 314 314 314 314 314 315 316 317 317 318 318 316 316 316 317 317
324 325 325 318 318 320 320 320 320 320 319 319 319 318 318 318 317 316 315 314 313 311 312 313 312 314 313 314 314 315 314 314 316 317 318 317 317 317 317 317 318 317 317
323 324 324 318 318 319 320 320 320 320 319 319 319 319 318 318 316 316 316 315 315 314 312 314 314 314 313 313 314 315 315 315 315 316 317 317 318 317 317 317 318 317 317
322 322 322 321 318 319 319 320 319 319 319 318 317 317 316 316 317 317 317 316 315 315 315 314 314 315 314 314 314 314 314 314 314 317 315 315 317 315 314 315 317 317 314
323 324 324 323 323 319 319 319 319 319 318 318 317 317 317 317 316 316 317 317 316 315 315 316 315 315 315 315 314 314 314 315 316 315 313 315 314 315 317 316 316 315 309
322 323 324 323 322 322 321 319 319 319 318 318 317 317 317 317 317 316 315 314 315 315 316 316 315 315 316 316 315 314 315 316 315 313 313 313 314 315 315 313 312 309 303
321 322 321 321 321 322 322 321 320 319 318 317 317 317 317 317 317 318 317 315 314 314 314 314 313 313 312 313 315 316 315 314 313 313 313 313 313 311 310 306 301 298 296
319 319 319 320 320 320 320 320 321 321 320 319 318 318 317 317 317 317 317 317 317 317 317 316 314 314 315 315 313 313 313 312 311 310 307 302 299 298 296 297 296 295 294
313 314 317 320 320 320 319 319 319 320 320 320 319 319 318 318 318 317 318 317 317 317 317 316 316 315 314 311 312 311 310 307 298 296 296 295 293 293 294 293 292 292 292
310 311 312 314 315 316 317 318 320 319 319 320 319 318 317 316 316 317 317 316 314 313 312 310 310 312 308 305 302 298 297 294 292 292 291 290 290 291 291 290 288 283 281
307 309 309 310 311 312 313 314 315 315 315 315 313 311 309 308 309 309 311 312 310 308 306 305 302 299 299 297 295 294 292 292 291 291 290 289 288 284 281 279 279 279 279
302 303 303 304 304 305 306 307 307 307 306 305 304 304 302 302 302 302 303 302 303 305 300 297 296 295 294 290 288 287 288 289 290 289 288 285 281 279 280 279 278 277 277
299 300 300 299 299 300 300 299 300 298 300 301 299 299 298 298 296 296 299 298 295 295 293 291 289 289 288 288 288 288 287 287 286 282 280 279 279 278 277 277 277 276 277
297 297 296 295 294 294 293 292 292 294 295 295 295 296 293 292 293 293 293 292 292 291 291 290 289 289 289 289 289 289 287 284 281 279 279 278 277 277 277 276 276 276 276
297 296 294 292 292 292 291 290 290 289 290 289 289 290 290 290 290 290 290 290 290 290 291 289 288 288 287 286 283 279 278 278 278 277 277 276 276 276 276 276 275 275 275
295 295 295 292 291 291 291 290 290 290 290 288 287 287 287 288 288 289 289 289 289 289 289 287 285 281 279 278 278 278 277 276 276 276 276 276 275 275 275 274 274 274 274
293 293 293 292 291 291 290 290 289 288 288 287 286 288 287 288 288 287 287 289 288 285 281 280 278 278 277 277 276 276 276 275 275 275 275 274 274 274 274 274 274 274 274
291 290 290 290 289 288 288 288 288 287 287 287 287 286 285 286 286 285 284 281 280 278 278 277 276 276 276 275 275 275 274 274 274 274 274 274 274 274 274 274 274 274 274
288 288 288 288 288 287 287 288 287 287 287 286 286 284 283 282 280 279 278 277 277 276 276 275 275 275 274 274 274 274 274 274 274 273 273 273 273 273 273 273 273 273 273
286 286 286 286 286 286 286 286 285 285 285 283 279 277 277 278 278 277 276 276 275 275 275 274 274 274 274 274 274 273 273 273 273 273 273 272 272 272 272 272 272 272 273
285 285 285 285 285 284 284 283 281 279 278 277 276 276 276 276 276 275 275 275 274 274 274 274 274 273 273 273 273 273 273 272 272 272 272 272 272 272 272 272 272 272 272
283 283 284 283 283 282 280 278 277 276 276 275 275 275 274 274 274 274 274 273 273 273 273 273 272 272 272 272 272 272 272 272 272 271 271 271 271 271 271 271 271 271 271
282 281 280 279 278 277 276 276 275 275 275 274 274 274 274 273 273 273 272 272 272 272 272 272 272 272 272 272 272 272 271 271 271 271 270 270 270 271 271 270 270 270 271
277 277 277 276 276 275 275 274 274 274 274 273 273 273 272 272 272 272 272 272 271 271 271 271 271 272 271 271 271 271 271 270 270 270 270 270 270 270 270 270 270 270 270

GFSGL_850_thetae_108.txt.gz
Theta_e
323 326 327 326 324 323 320 320 320 320 319 320 321 322 322 322 322 322 321 318 318 317 317 316 315 317 314 315 314 314 313 316 316 316 316 317 315 316 316 317 317 316 317
322 324 325 325 323 322 319 320 321 320 320 319 319 319 320 321 322 321 320 317 317 316 315 316 314 313 316 316 315 314 315 313 313 314 314 316 315 315 315 315 316 317 316
323 322 325 326 324 320 320 321 321 320 320 319 319 320 320 320 321 319 319 318 317 313 311 312 310 312 316 316 313 312 313 313 313 314 314 315 317 316 316 315 316 316 316
322 322 324 324 323 319 320 321 321 320 320 320 319 319 319 318 318 318 318 317 316 314 312 314 312 312 315 316 314 313 313 313 314 315 315 315 315 317 316 317 317 317 317
321 321 323 323 320 320 320 320 320 320 320 319 319 319 318 318 318 317 317 317 316 315 314 313 311 312 314 313 313 314 314 314 314 314 315 315 315 315 317 317 317 317 316
320 321 323 323 319 319 319 320 320 320 320 319 318 319 319 317 318 317 317 317 316 315 313 313 313 314 314 313 314 313 313 314 314 315 315 314 314 314 315 313 315 315 315
321 322 321 320 318 319 319 320 320 320 319 319 319 319 318 317 317 317 317 317 316 315 315 313 312 312 313 313 313 314 313 313 314 314 314 314 314 314 315 313 314 314 314
320 320 321 322 322 320 318 319 319 319 320 320 318 319 317 316 316 316 316 317 317 316 316 315 315 314 313 314 314 314 314 314 314 314 314 315 315 315 315 315 314 313 310
320 320 320 320 321 321 322 321 319 318 318 318 318 317 317 317 316 316 316 315 317 317 317 317 316 316 315 316 316 315 315 315 314 315 314 315 316 314 312 312 309 306 302
316 317 318 319 321 320 320 321 320 321 320 319 318 317 317 316 317 317 317 316 315 315 316 316 315 315 316 316 314 315 314 313 313 312 312 310 307 305 304 302 301 298 296
313 314 316 317 319 319 319 320 320 320 320 319 319 318 317 317 317 317 317 317 317 316 315 314 314 315 314 314 314 313 312 310 307 303 300 298 296 295 295 294 293 293 292
300 308 312 314 314 316 317 318 319 319 319 319 318 316 315 315 316 317 317 316 315 315 313 312 312 312 311 308 306 305 303 301 300 296 294 293 292 291 291 291 292 291 290
304 307 309 309 311 312 313 314 315 313 313 313 311 310 310 309 310 311 312 312 312 312 308 306 306 304 304 303 301 297 295 294 293 292 291 290 291 291 289 286 284 284 284
300 301 303 305 305 305 306 306 307 306 306 306 305 305 304 304 304 305 306 305 306 304 305 297 297 297 296 293 290 290 290 290 291 291 291 290 289 287 285 284 281 279 279
295 294 296 297 298 299 298 298 299 298 300 300 300 300 300 299 297 297 297 298 296 295 294 292 290 289 289 288 288 288 289 289 289 289 288 284 281 279 278 278 278 278 278
293 294 293 292 293 293 293 293 292 293 294 294 294 295 294 293 293 293 293 293 291 290 290 289 287 287 287 287 287 287 286 286 283 280 278 277 277 277 277 277 277 277 277
293 292 292 291 289 288 288 289 289 287 289 290 290 291 291 291 291 291 290 289 289 289 290 288 287 287 284 283 284 283 280 278 278 277 277 277 277 277 276 276 276 276 276
293 292 292 291 290 289 288 287 287 287 288 288 289 290 290 289 289 288 288 288 289 289 287 285 284 283 280 280 279 278 278 277 277 276 276 276 276 275 275 275 275 275 275
292 291 291 291 290 289 288 286 285 285 285 285 286 287 287 287 288 288 288 289 288 286 283 281 279 279 279 278 278 277 277 276 276 276 276 275 275 275 275 275 275 275 275
290 289 288 288 288 287 285 285 285 286 286 286 286 285 285 286 286 287 285 282 280 278 278 277 277 277 277 277 276 276 276 276 275 275 275 275 275 274 274 274 274 274 274
288 288 288 288 287 287 287 286 286 286 286 286 285 285 285 284 281 280 279 278 278 277 277 277 276 276 276 276 275 275 275 275 274 274 274 274 274 273 273 273 273 274 274
286 287 287 287 286 286 286 286 286 285 283 281 279 278 278 278 278 277 277 277 277 276 276 275 275 275 275 275 274 274 274 273 273 273 273 273 273 273 273 273 273 273 273
285 285 285 285 285 285 285 284 282 280 278 277 277 277 277 277 277 276 276 276 275 275 275 275 274 274 274 274 273 273 273 273 273 273 272 272 272 272 272 272 272 272 272
284 284 284 284 283 283 280 278 277 277 277 276 276 276 275 275 275 275 274 274 274 274 274 273 273 273 273 273 273 272 272 272 272 272 272 271 271 271 271 271 271 271 271
282 282 282 281 280 278 277 276 276 275 275 275 275 274 274 274 274 274 273 273 273 273 273 272 272 272 272 272 272 272 272 271 271 271 271 271 271 270 270 270 270 270 271
278 278 277 277 276 276 275 275 274 274 274 274 273 273 273 273 273 273 272 272 272 272 272 272 272 271 271 271 271 271 271 271 270 270 270 270 270 270 270 270 270 270 270

GFSGL_850_thetae_111.txt.gz
Theta_e
326 324 323 326 328 329 328 327 325 320 324 323 322 322 323 323 323 323 322 321 319 319 319 319 320 318 317 317 317 316 315 316 315 317 319 318 317 318 317 318 318 318 318
324 323 321 325 327 327 327 324 320 321 323 322 323 322 321 322 322 322 321 321 320 319 319 319 320 318 317 315 315 318 315 315 317 317 317 317 316 316 315 316 316 317 317
323 322 323 324 326 326 326 321 320 324 322 320 321 323 321 321 322 322 322 321 321 320 319 319 319 318 315 316 317 316 315 314 314 313 314 315 315 315 315 317 316 316 315
322 322 322 324 325 325 324 320 320 325 323 321 320 322 320 320 321 320 321 320 319 318 317 318 318 318 316 315 315 315 315 316 315 314 314 313 312 314 315 315 317 317 317
321 321 322 323 323 325 324 322 321 324 321 320 320 321 320 319 319 319 318 319 317 316 316 316 316 316 316 315 313 314 316 315 313 313 313 314 314 315 314 314 315 315 317
321 321 321 321 322 322 322 322 323 323 320 320 320 320 319 319 318 318 317 317 317 316 315 315 315 314 313 311 310 311 313 315 313 314 314 314 314 315 315 315 314 315 316
320 320 320 320 321 321 322 320 322 323 321 320 321 320 319 319 318 318 317 317 317 317 316 315 314 314 314 314 312 312 314 314 313 314 313 314 314 314 314 315 314 314 315
319 319 319 320 320 321 320 319 321 323 320 320 320 319 318 318 317 317 316 317 316 317 317 316 315 314 314 313 312 312 314 313 313 314 313 313 313 314 314 314 316 315 313
318 318 319 318 318 320 322 322 321 320 319 319 319 319 319 318 317 317 316 316 315 316 316 317 316 316 316 314 313 313 312 312 313 314 314 313 313 313 314 314 313 311 307
307 314 317 318 320 319 319 319 319 320 320 319 320 319 318 318 317 316 316 316 316 316 316 317 317 316 316 316 315 315 314 314 314 314 314 313 312 311 310 307 306 305 303
300 308 312 314 317 318 319 319 319 319 319 319 319 318 317 317 317 317 316 316 316 316 315 315 315 316 316 316 316 315 315 315 311 308 306 304 302 302 301 300 299 297 295
297 307 307 312 309 314 318 319 319 319 320 318 318 317 317 317 318 318 317 316 316 315 314 315 315 315 315 314 314 310 309 307 304 302 299 298 296 295 294 293 293 292 293
304 305 304 304 304 306 313 313 316 317 316 315 313 312 311 312 313 314 314 314 314 313 311 310 309 309 308 308 306 302 301 299 297 295 294 293 292 291 291 291 291 291 290
300 301 301 303 304 303 307 309 308 305 305 305 305 305 305 304 305 306 307 307 305 304 302 300 299 300 299 298 294 292 292 292 292 291 291 291 290 289 289 287 285 282 280
293 288 290 293 296 295 297 297 298 298 300 301 300 300 300 299 298 298 298 298 297 296 296 294 293 293 291 290 289 288 289 289 290 289 288 288 286 284 281 279 279 279 279
295 292 293 292 292 292 291 291 291 292 294 295 295 296 295 294 293 293 293 293 292 290 290 289 287 287 287 287 287 287 287 287 286 285 282 279 279 279 279 279 279 279 279
293 292 292 291 289 288 287 289 289 289 291 291 291 291 291 290 291 290 290 289 288 289 289 286 285 285 285 284 283 283 283 281 279 279 279 279 279 278 278 278 278 278 278
292 290 290 289 288 287 287 287 287 287 288 287 288 288 288 287 287 287 288 288 288 287 285 283 282 281 281 280 279 279 278 278 278 278 278 278 278 278 277 278 278 278 278
289 288 288 288 287 286 286 285 285 285 285 285 286 286 287 287 287 287 287 286 282 281 281 280 280 279 278 278 277 277 277 277 277 277 277 277 277 277 276 276 276 276 276
287 286 285 286 285 284 283 283 283 283 283 283 283 282 283 286 286 286 284 281 279 279 278 278 277 277 276 276 276 276 276 276 276 276 275 275 275 275 275 275 275 276 275
286 286 286 286 285 284 284 284 284 284 285 285 284 283 283 282 279 278 277 277 277 277 276 276 276 276 276 275 275 275 275 275 274 274 274 274 274 274 274 274 274 274 274
284 284 284 284 284 284 283 282 281 281 280 280 278 278 277 277 276 275 275 274 274 275 275 275 275 274 274 274 274 274 274 274 274 274 274 274 273 274 273 273 273 273 273
283 283 283 283 282 281 280 279 278 278 277 276 276 275 275 275 274 274 273 274 275 276 275 275 275 275 275 275 274 273 273 274 274 274 273 273 272 272 272 272 272 272 272
282 282 281 281 279 278 278 277 276 276 276 275 275 274 274 274 274 274 274 275 275 275 275 274 274 274 274 274 274 274 274 274 273 273 273 273 272 271 271 271 271 271 271
280 280 279 278 277 277 276 276 275 275 274 274 273 273 273 273 273 274 274 274 274 274 274 274 273 273 273 273 273 273 273 273 272 272 272 272 271 271 271 271 270 270 270
277 277 277 276 276 276 275 275 274 274 273 273 272 272 272 272 272 273 273 273 273 273 273 273 272 272 272 273 272 272 272 272 272 271 271 271 270 270 269 269 268 268 268

GFSGL_850_thetae_114.txt.gz
Theta_e
323 325 327 327 326 326 330 332 331 329 327 326 323 322 326 322 323 324 322 323 322 321 320 319 319 319 319 318 316 318 318 318 315 316 316 317 317 318 318 318 320 318 318
323 328 328 327 324 325 330 331 330 328 325 325 323 323 324 323 324 324 324 322 322 321 320 319 319 318 318 318 317 317 317 317 316 316 316 317 317 316 316 318 317 316 316
323 325 325 324 323 325 330 329 328 326 323 323 324 323 323 324 322 322 322 322 321 321 321 319 319 319 319 319 318 317 317 315 316 315 317 317 317 317 316 315 315 316 315
320 323 323 323 322 324 328 328 326 325 324 324 324 323 321 320 321 320 321 321 321 320 320 319 319 319 319 319 319 318 316 315 316 315 316 316 314 314 314 314 314 315 315
318 322 322 322 322 324 327 326 325 322 322 323 322 321 320 320 320 320 320 320 321 320 319 318 319 319 319 319 319 317 317 316 315 315 314 314 314 315 314 313 314 314 314
317 321 322 322 322 324 325 324 324 322 321 323 321 319 319 319 319 319 319 319 317 318 317 316 317 318 318 318 318 317 316 315 315 315 315 315 314 313 313 314 314 315 315
316 321 321 321 322 323 324 323 322 321 321 321 321 320 321 319 318 318 317 317 316 317 317 316 316 316 316 317 317 316 315 314 313 313 314 314 314 314 314 314 314 314 314
316 318 320 321 322 323 322 320 320 320 320 320 320 321 321 321 318 317 317 317 318 317 317 316 316 314 315 314 314 314 312 311 311 313 314 314 314 313 314 314 313 314 314
305 313 318 319 320 321 320 319 320 320 320 319 319 320 320 320 318 317 317 317 316 316 316 316 316 316 315 314 314 313 313 313 313 312 313 313 313 313 313 313 313 312 310
302 303 310 318 319 320 319 319 319 320 319 319 319 319 320 319 319 317 316 316 316 317 316 315 316 316 316 315 315 314 313 313 313 313 313 312 312 311 311 311 309 308 306
300 300 302 311 316 318 319 319 319 318 319 318 318 318 319 318 318 317 316 316 316 316 316 316 316 316 315 315 315 315 315 314 313 311 308 307 305 305 304 304 303 302 301
299 300 300 304 303 313 318 318 318 318 318 318 318 318 318 317 317 317 316 316 316 316 315 315 315 315 315 314 313 312 311 310 307 305 302 301 300 299 298 298 297 296 296
298 300 301 300 301 303 304 311 314 315 316 315 314 314 312 313 315 316 314 314 313 314 312 312 311 310 310 309 308 308 306 302 301 299 297 296 295 295 294 293 293 292 291
296 299 300 299 301 303 302 305 302 302 306 306 307 306 305 304 306 308 306 307 304 304 302 300 302 302 303 302 299 297 296 295 295 294 294 292 292 291 291 289 289 286 284
293 294 295 293 295 296 297 299 299 298 299 299 300 300 302 300 296 297 299 299 298 297 297 297 295 295 294 292 292 292 291 291 292 291 291 291 289 288 286 282 281 280 280
291 291 292 291 292 292 291 291 291 293 295 296 295 296 292 292 292 294 293 293 293 292 293 292 289 289 289 288 288 288 288 289 289 289 287 285 282 280 280 279 279 279 279
288 288 288 288 287 287 287 288 287 287 290 290 289 289 289 289 289 289 289 289 289 290 290 287 286 286 286 286 287 287 287 285 283 281 280 280 279 279 279 279 279 278 278
288 287 287 287 286 286 286 287 288 288 287 285 285 286 286 286 286 286 287 288 288 286 285 284 284 284 283 283 282 281 280 280 280 279 279 278 278 278 278 279 279 278 278
286 286 286 286 286 285 285 286 285 285 284 284 284 285 285 286 287 287 287 288 285 284 283 283 282 282 282 282 281 280 279 279 279 279 278 278 278 278 277 277 276 277 277
285 285 285 285 286 286 286 286 285 285 284 284 283 283 284 286 286 284 283 283 282 281 280 279 279 278 278 278 277 277 278 277 277 277 277 277 276 276 276 276 277 276 276
285 285 285 285 285 285 285 285 285 286 285 284 283 282 284 285 283 281 280 279 278 278 278 278 277 277 277 277 277 277 277 277 276 276 276 276 276 276 276 275 275 275 275
284 284 284 284 283 284 283 283 283 283 282 282 280 279 279 280 279 279 278 278 277 277 277 277 277 277 276 276 276 276 275 275 275 275 275 275 275 274 274 274 274 274 274
283 283 283 282 282 281 281 281 281 280 279 278 277 277 277 277 277 277 277 277 277 277 277 276 276 276 276 276 276 276 276 275 275 275 275 274 274 274 273 273 273 273 273
281 281 281 281 281 281 280 279 278 277 277 276 276 276 276 275 275 275 276 276 275 275 275 275 275 275 276 275 275 274 274 274 274 274 273 273 274 273 273 273 272 272 272
279 279 279 278 278 277 277 276 276 275 275 275 274 274 274 274 274 274 274 274 274 274 274 274 274 274 274 274 274 273 273 273 273 273 272 273 273 272 271 271 271 271 271
278 277 277 277 277 276 276 275 275 274 274 273 273 273 272 273 273 273 273 273 273 274 273 273 273 273 273 273 273 273 273 272 272 272 272 271 272 272 271 271 271 270 270

GFSGL_850_thetae_117.txt.gz
Theta_e
313 314 318 321 323 324 328 329 326 331 332 332 331 328 327 325 324 322 324 323 323 321 322 323 322 321 320 320 320 319 317 316 316 317 317 318 318 318 317 318 318 319 318
311 314 319 326 326 325 327 327 326 331 332 330 329 327 325 323 321 322 322 324 323 322 321 321 320 320 320 320 319 320 316 318 317 317 315 317 317 317 317 318 317 317 316
310 313 318 323 327 327 326 324 326 330 331 329 328 325 323 322 322 322 322 322 322 322 321 319 319 320 320 319 319 319 317 318 317 316 316 316 316 316 316 317 314 315 316
308 311 317 321 324 323 323 323 325 330 328 328 327 323 323 322 320 321 322 322 322 322 322 322 320 319 319 319 319 319 317 316 316 315 315 316 316 317 316 316 316 315 314
307 310 316 321 323 323 323 322 326 328 327 327 323 323 322 323 320 320 321 321 321 321 321 320 320 320 319 319 319 318 317 317 316 317 316 316 316 317 316 314 314 314 314
305 307 313 319 322 323 322 322 326 327 326 325 323 322 322 321 321 319 320 321 320 318 319 319 319 319 319 319 319 319 319 319 317 316 315 315 315 316 315 315 314 314 314
302 306 312 319 321 322 322 323 325 324 325 324 321 320 322 320 319 319 319 319 319 318 318 318 317 317 318 318 318 318 318 318 318 316 315 315 315 314 314 315 314 313 314
301 304 308 317 321 321 322 323 323 324 322 322 320 319 319 319 318 317 317 317 317 316 316 317 317 316 316 316 317 317 317 316 315 315 315 315 313 313 314 314 314 314 314
299 302 306 311 320 321 322 323 323 322 322 321 319 319 318 317 317 317 316 317 315 316 316 316 316 315 315 315 315 315 314 314 314 314 313 312 311 314 314 314 313 313 312
297 298 302 306 316 321 321 322 321 321 321 320 319 319 319 318 318 317 316 316 315 315 316 316 316 316 315 315 314 314 314 313 313 313 313 313 313 313 313 312 312 310 308
297 298 300 304 308 317 320 320 320 320 320 321 320 319 319 319 318 317 316 316 316 316 315 315 315 315 315 315 315 315 314 314 313 312 312 311 311 310 309 308 306 305 304
298 298 298 301 304 305 315 319 320 320 320 320 319 318 318 318 318 317 316 316 315 315 315 316 316 316 316 314 314 313 314 313 312 310 307 305 304 303 302 301 301 300 300
297 297 297 298 302 301 300 308 313 316 316 316 316 316 317 317 316 315 315 315 314 314 314 314 314 315 314 313 312 312 311 308 306 304 302 300 299 298 298 297 296 296 295
294 294 295 296 298 300 301 300 301 303 308 307 308 310 308 309 309 309 311 310 311 309 308 306 306 308 308 308 305 302 301 299 298 298 297 296 294 293 293 292 292 291 291
291 291 292 292 292 294 295 297 299 298 300 301 299 298 299 300 300 301 302 302 302 305 301 301 300 298 300 297 295 295 295 294 294 294 293 292 291 291 289 285 284 283 283
290 289 288 289 289 289 290 289 291 291 292 294 294 297 291 292 294 296 297 297 296 299 297 297 294 292 293 291 291 291 291 291 290 290 290 289 287 285 283 281 281 281 281
289 288 288 288 287 287 287 287 286 286 286 286 287 286 286 288 292 293 293 293 292 292 294 291 290 289 289 288 288 289 289 288 287 286 285 283 281 281 280 280 280 279 279
288 287 287 286 286 286 285 285 285 285 285 285 285 286 287 288 288 289 289 289 289 289 289 288 287 287 287 287 287 287 285 283 282 281 280 280 280 280 279 279 279 278 278
287 287 287 286 286 286 286 285 285 284 284 284 284 285 285 287 287 287 288 290 289 287 286 286 285 285 285 284 283 281 281 280 280 280 279 279 279 279 279 278 278 278 278
285 285 286 286 286 286 286 286 286 285 285 284 284 284 284 286 287 286 286 286 286 285 284 283 282 281 280 280 279 279 279 279 279 279 278 278 278 277 277 277 277 277 277
285 284 284 285 285 285 285 285 285 284 284 285 284 284 284 286 284 283 282 281 281 280 280 280 279 279 278 278 278 278 278 278 277 277 277 277 277 277 277 276 276 276 276
284 284 284 284 283 283 283 283 283 283 282 282 281 280 280 281 281 280 280 279 279 279 278 278 278 278 278 278 277 277 277 277 277 276 276 276 276 276 276 275 275 275 275
283 283 282 282 282 282 282 281 280 280 279 278 278 278 278 278 277 277 277 277 277 277 277 277 277 277 277 277 276 276 276 276 276 275 276 275 275 275 275 275 274 274 274
280 281 281 280 280 280 280 279 278 278 277 277 277 277 276 276 276 276 276 276 276 276 276 276 276 275 275 275 275 275 275 275 274 274 274 274 274 274 273 273 273 273 273
279 279 278 278 278 278 277 277 276 276 276 276 276 276 275 275 275 275 275 275 275 274 275 275 275 274 274 274 274 274 274 273 273 273 273 273 273 273 273 273 272 272 271
278 278 277 277 276 276 276 275 275 275 274 274 274 274 274 274 274 274 274 274 274 274 274 274 273 273 273 273 273 273 273 273 272 272 273 272 272 272 272 272 271 271 271

GFSGL_850_thetae_120.txt.gz
Theta_e
312 312 312 313 314 316 318 318 322 328 330 328 327 329 331 329 329 330 328 326 322 321 322 321 322 322 323 322 321 321 321 320 319 319 318 317 316 317 314 317 318 318 319
312 312 313 314 314 317 324 323 321 326 329 328 326 328 332 329 328 327 326 325 321 322 321 322 322 322 321 321 321 321 321 320 319 318 318 315 316 318 318 318 317 318 318
310 311 312 312 314 319 324 326 325 325 327 326 326 329 330 329 327 326 324 323 321 321 323 321 320 321 320 320 320 320 320 320 319 317 317 316 318 316 317 317 317 317 317
307 308 309 311 314 318 323 325 326 326 325 325 326 328 329 327 325 321 322 321 322 322 322 322 321 320 319 319 320 320 320 319 317 317 316 315 315 316 316 316 316 316 317
305 305 306 309 314 317 320 323 323 323 323 324 325 329 328 326 323 321 321 321 320 322 322 321 321 321 320 320 320 320 320 318 318 316 316 316 316 314 316 316 315 316 315
302 303 304 307 312 317 320 322 323 323 322 325 328 326 325 322 321 321 321 320 322 321 322 321 320 320 320 320 319 320 320 319 317 317 316 315 316 316 316 317 316 315 314
301 302 304 306 311 316 320 322 322 322 323 324 327 324 323 322 321 319 320 320 320 320 320 320 320 319 319 319 319 319 319 319 318 317 316 316 315 317 317 316 315 315 314
300 301 302 305 308 313 318 321 322 322 323 325 324 323 322 321 320 318 318 319 319 319 319 319 319 318 318 318 319 319 318 318 318 317 317 317 316 316 315 314 315 314 314
299 299 301 302 306 310 315 321 321 322 322 324 323 322 323 321 318 318 317 318 318 317 317 317 317 317 316 317 317 318 317 317 316 317 316 316 315 315 315 314 313 313 314
297 296 298 300 302 307 312 320 322 322 321 322 321 321 320 318 317 317 316 316 316 316 315 316 316 316 316 315 316 316 316 316 315 315 314 314 313 313 312 311 313 313 313
296 296 298 299 301 303 308 314 320 322 322 321 321 320 319 318 317 316 316 315 315 315 316 316 316 315 315 314 314 314 314 314 313 313 312 312 312 312 312 312 311 310 309
295 296 297 298 299 301 303 306 314 317 321 319 319 319 318 318 317 316 316 316 315 315 315 316 316 316 315 315 314 314 314 314 313 313 312 311 310 309 309 307 306 305 304
293 295 296 296 297 298 300 303 300 305 313 315 317 316 317 317 317 316 316 315 315 315 315 315 315 314 315 315 314 314 313 312 311 310 308 305 303 303 302 302 301 300 300
292 293 293 294 294 293 293 298 298 299 301 304 307 310 311 310 313 314 315 315 315 314 315 315 315 315 314 313 313 310 308 306 304 303 302 300 299 297 297 297 297 296 295
290 290 291 291 291 289 288 288 294 294 297 296 297 303 302 303 303 303 305 309 310 309 309 307 307 308 307 303 301 300 298 298 298 298 297 296 295 294 294 292 292 291 290
290 289 289 290 289 289 287 287 287 287 291 293 295 298 295 297 297 298 298 298 302 304 303 300 297 298 299 297 297 295 295 294 295 294 294 293 293 291 289 284 283 283 283
288 288 288 288 288 288 288 287 286 287 288 288 288 288 290 293 296 295 295 293 296 299 299 295 295 293 291 293 293 292 292 292 292 292 291 290 288 285 283 281 280 281 280
288 287 287 287 287 287 287 287 287 287 287 287 287 289 290 291 291 292 293 292 291 291 294 294 292 291 291 291 290 290 290 288 287 286 284 283 281 281 281 280 280 280 279
287 287 287 287 287 287 287 287 286 286 287 287 287 288 288 289 288 288 288 290 290 290 289 289 288 287 287 287 286 285 284 283 282 281 280 280 279 280 280 279 279 279 279
285 286 287 287 287 287 287 287 287 286 286 286 286 285 285 286 287 286 287 288 289 288 287 286 285 284 283 282 281 281 280 280 280 280 279 279 279 279 279 279 278 278 278
284 285 285 286 286 286 286 286 286 286 287 286 285 284 285 287 287 287 286 285 285 284 284 283 281 280 280 279 279 279 279 279 279 278 278 278 278 277 277 277 277 277 276
283 284 284 285 285 285 284 284 284 284 284 283 282 282 281 282 281 280 280 279 279 279 278 278 278 278 277 277 277 278 278 278 277 277 277 277 277 276 276 276 276 276 276
282 282 282 282 282 282 282 281 280 279 279 278 278 278 278 278 278 278 278 278 277 277 277 277 277 277 277 276 276 276 276 276 276 275 275 275 275 275 275 275 275 275 275
281 281 280 280 280 280 279 279 278 277 277 277 276 276 276 276 276 276 276 276 275 275 275 276 275 275 275 275 275 275 275 275 275 275 274 274 274 274 274 274 274 274 273
279 279 279 278 278 277 277 276 276 276 275 275 275 275 275 274 274 274 274 274 274 274 274 274 274 274 274 274 274 273 274 273 274 274 273 273 273 273 273 273 272 272 272
277 277 277 277 276 276 276 275 275 275 274 274 274 273 273 273 273 273 273 273 273 273 273 273 273 273 273 273 273 273 272 273 273 273 273 273 272 272 272 272 272 271 271

GFSGL_850_thetae_123.txt.gz
Theta_e
311 311 311 312 312 312 313 312 313 316 316 319 327 330 330 327 327 327 327 328 328 329 328 325 320 321 322 322 322 323 323 322 321 321 321 321 318 316 317 315 316 317 318
311 311 311 312 312 312 313 314 315 317 318 318 324 329 330 327 326 330 329 328 328 329 327 324 319 322 321 322 322 322 322 321 321 320 320 320 317 317 317 316 317 317 316
309 310 310 311 311 312 313 314 315 322 325 321 322 329 329 328 325 329 329 328 328 330 326 322 320 321 321 321 321 321 321 321 321 320 320 319 317 315 316 318 314 315 317
306 307 309 310 309 311 312 314 318 324 325 324 324 329 328 326 325 328 330 327 328 327 324 321 321 322 322 321 321 320 321 319 320 320 319 318 318 314 316 318 318 315 315
305 305 306 306 307 308 310 314 318 323 324 324 326 327 327 325 326 329 329 326 326 323 321 321 321 322 321 320 320 319 319 319 319 319 319 318 315 314 315 317 317 316 315
302 301 302 303 305 307 309 312 317 321 323 323 323 323 323 325 326 328 327 325 321 320 321 321 321 322 321 321 320 319 319 319 319 319 318 317 317 315 316 316 315 315 316
300 300 301 302 304 306 308 312 316 319 321 322 323 323 324 325 324 327 324 321 320 320 320 320 322 321 321 321 320 319 319 319 319 320 317 317 316 315 315 315 315 317 316
299 299 300 301 303 305 307 310 316 319 320 322 321 321 322 326 326 325 320 320 320 320 320 321 321 320 320 320 319 319 319 319 319 318 318 317 316 317 316 315 315 317 315
299 298 298 299 300 302 305 309 314 318 319 321 322 320 323 323 324 321 319 318 318 319 319 319 319 319 319 319 319 319 318 319 317 317 317 317 317 316 316 315 316 315 315
296 296 297 298 298 299 302 307 312 317 320 321 322 322 321 324 322 320 318 318 318 319 319 319 318 318 318 318 317 318 317 317 317 317 316 316 316 317 316 316 316 315 315
295 295 296 297 297 297 300 303 307 311 318 321 321 320 323 322 321 318 317 317 318 318 318 317 316 316 317 316 316 316 317 317 316 316 315 315 314 314 314 314 314 313 312
293 294 294 294 293 294 297 299 300 306 311 313 319 321 320 318 318 316 316 316 316 316 315 315 316 316 315 315 315 314 315 315 315 314 314 314 313 312 312 311 310 310 309
293 293 292 292 291 292 295 296 297 300 303 301 307 317 316 316 315 315 314 315 315 315 316 316 316 316 315 314 314 314 314 314 313 313 312 311 310 309 308 307 306 306 305
291 291 291 290 290 290 291 291 293 296 298 299 296 303 309 313 313 314 314 315 315 315 315 315 315 315 315 315 315 314 312 310 310 310 309 308 305 303 302 301 301 300 300
290 290 290 289 289 288 287 287 287 287 293 294 292 294 297 299 302 302 311 314 313 312 314 313 313 312 311 309 309 308 306 305 303 302 301 300 299 298 297 297 297 296 296
289 288 288 288 288 289 288 287 287 288 288 290 290 289 288 292 298 300 300 301 304 305 305 305 303 304 302 302 299 298 299 299 299 298 297 296 295 294 294 293 291 290 290
287 287 288 288 288 288 288 288 287 287 288 288 288 289 290 291 293 295 299 299 300 299 300 297 297 296 296 295 296 294 294 294 294 294 294 293 293 292 289 284 283 283 282
286 286 286 286 287 288 287 288 288 288 288 288 288 288 288 290 292 292 293 295 295 295 294 292 292 292 292 292 292 292 292 290 290 291 290 287 284 284 282 281 281 281 281
286 286 286 286 285 286 287 288 288 288 287 287 288 288 288 289 290 291 292 293 291 290 289 289 289 289 290 290 288 287 286 286 285 284 282 281 281 281 281 280 279 279 279
285 285 285 285 285 285 285 285 286 286 287 287 287 286 287 290 291 290 290 289 289 288 287 287 286 285 285 285 283 282 281 281 280 280 280 280 279 279 280 279 279 279 278
284 284 284 285 285 285 284 284 284 284 283 283 282 282 284 286 285 285 286 286 285 284 283 283 282 281 280 280 279 279 279 279 279 279 279 279 279 279 278 278 278 277 277
282 283 283 284 283 284 284 282 281 281 280 280 279 279 279 280 280 280 279 279 278 278 278 278 278 278 278 278 278 278 278 278 278 278 278 277 277 277 277 277 277 277 276
281 281 282 282 281 281 281 281 280 279 278 278 278 278 278 278 278 278 278 278 278 278 277 277 278 278 278 277 277 277 277 277 276 276 276 276 276 276 276 276 275 275 275
280 280 280 279 279 278 278 277 277 277 277 277 277 277 277 277 277 277 277 277 277 277 276 276 276 276 276 276 276 276 276 275 275 275 275 275 275 275 275 274 274 274 273
278 278 278 277 277 277 276 276 276 275 275 275 275 275 275 275 275 275 275 275 275 275 275 275 275 275 275 275 275 274 274 274 274 274 274 274 274 273 273 273 273 273 273
276 276 276 276 276 276 275 275 274 274 274 274 273 273 273 273 273 273 273 273 273 273 273 273 273 273 273 273 273 273 273 273 273 273 273 272 272 272 272 272 272 272 272

GFSGL_850_thetae_129.txt.gz
Theta_e
308 310 310 309 310 312 311 312 313 313 313 313 314 314 314 316 321 327 331 333 333 331 330 329 327 325 328 328 328 328 326 323 322 322 321 322 321 321 322 321 320 317 315
305 306 308 309 310 310 310 310 310 311 311 311 312 312 312 312 313 315 324 332 333 331 331 330 326 325 328 329 328 327 326 321 321 321 320 321 321 321 321 319 319 316 315
304 304 305 307 308 309 309 309 310 310 311 311 311 312 312 312 313 314 315 325 327 331 330 328 326 326 327 328 328 328 327 320 322 321 321 321 321 321 322 320 319 318 317
307 306 305 307 308 308 308 308 309 309 310 310 311 312 313 313 313 315 318 320 327 328 329 326 326 326 327 327 328 327 323 320 321 320 321 320 321 321 320 321 320 318 317
302 302 303 306 306 306 308 308 308 309 309 309 310 311 313 316 317 321 321 320 326 328 328 326 327 327 328 327 327 326 321 320 319 320 321 321 320 320 320 320 320 318 317
301 301 304 304 304 305 305 304 305 306 308 309 310 310 312 316 319 322 322 322 323 326 328 327 325 327 328 327 328 324 320 320 320 321 321 320 320 319 319 320 318 317 316
301 299 300 301 302 303 304 304 305 305 306 308 309 310 312 316 320 322 324 322 323 325 326 325 325 326 327 325 323 320 321 321 321 321 320 320 319 319 319 319 318 317 317
297 297 299 300 301 301 302 302 302 302 303 306 309 311 313 316 320 322 322 324 324 323 324 323 325 324 326 325 321 321 321 321 320 320 320 319 319 319 319 318 318 317 315
292 294 295 296 296 297 298 298 298 299 301 304 307 310 313 316 319 322 322 323 323 323 323 324 325 323 326 321 321 321 319 321 320 320 320 319 318 318 318 318 318 317 315
292 293 293 293 294 294 296 296 297 298 299 300 304 307 311 316 319 321 321 321 322 322 323 324 323 322 320 320 321 320 321 321 320 319 319 318 318 318 318 317 317 317 315
291 292 292 292 293 293 293 294 295 296 299 299 300 303 306 312 318 318 320 321 321 322 320 323 322 320 319 320 320 321 321 320 319 318 318 318 318 317 317 317 317 316 317
290 290 291 291 292 292 292 293 293 295 295 297 298 300 302 307 313 317 319 319 319 321 322 321 320 319 319 320 320 319 319 319 319 319 318 318 316 317 316 315 315 315 315
290 290 290 290 290 290 290 290 291 292 291 292 292 295 299 301 303 310 316 318 315 319 321 319 319 319 320 319 318 318 317 317 317 316 316 315 314 314 314 314 313 313 312
289 289 289 289 289 290 288 288 286 287 289 289 288 289 292 296 299 300 303 307 311 316 318 318 318 318 318 318 317 316 316 315 315 314 314 312 312 310 310 309 310 309 309
287 288 288 288 289 288 287 286 286 284 285 287 286 286 288 289 289 292 298 299 302 310 313 314 315 314 315 313 314 313 313 312 311 309 309 309 306 306 305 303 304 305 304
287 287 286 287 288 288 289 287 287 288 288 288 288 289 288 288 289 290 293 298 297 299 301 303 304 305 305 307 308 307 307 307 307 306 305 303 303 301 300 298 299 299 299
285 286 286 286 287 287 288 288 288 286 288 289 288 289 289 289 290 290 291 293 297 297 298 296 297 294 294 294 297 299 299 299 299 299 299 297 297 296 296 295 295 295 293
284 284 285 285 285 286 286 285 286 287 288 288 287 288 289 288 290 289 290 292 292 291 291 291 292 291 290 290 290 292 292 293 293 294 294 293 293 293 293 292 292 292 291
283 283 284 284 284 284 283 283 283 283 284 286 287 287 287 288 289 289 290 289 286 285 285 286 286 287 287 287 288 289 289 289 289 290 289 289 289 290 290 288 285 284 282
282 282 283 283 283 283 282 281 281 281 281 281 281 283 286 288 288 286 286 285 284 283 283 284 284 284 285 285 286 286 286 287 287 287 286 284 282 282 281 281 280 280 280
280 281 281 281 281 281 280 279 279 279 279 279 278 279 279 281 282 283 283 283 282 282 282 282 282 283 283 282 282 281 281 280 280 280 280 280 280 280 280 280 280 280 279
279 279 279 279 279 278 278 277 277 277 277 277 277 277 278 278 278 278 278 278 279 279 279 279 279 279 279 279 279 280 280 280 280 279 279 279 279 279 279 278 278 278 278
277 277 277 277 276 276 276 276 276 276 276 276 276 276 277 277 277 277 276 276 277 277 277 277 278 278 278 278 278 278 278 278 277 277 278 278 278 278 278 277 277 277 277
276 276 276 275 275 275 275 275 275 274 274 274 274 274 275 275 275 275 275 275 275 275 275 276 276 276 276 276 276 276 276 276 276 276 276 276 276 276 276 276 276 275 275
275 275 275 274 274 274 273 273 273 273 273 273 273 273 273 273 273 273 273 273 273 273 274 274 274 274 274 275 275 275 275 275 275 275 275 275 275 275 274 274 274 274 274
274 273 273 273 273 273 272 272 272 272 272 272 272 272 272 272 272 272 272 272 272 272 272 273 273 273 273 273 273 273 273 273 274 274 274 274 274 274 274 274 274 273 273

GFSGL_850_thetae_132.txt.gz
Theta_e
302 306 312 314 316 316 316 317 321 324 326 326 325 324 324 325 326 327 327 327 330 334 334 334 333 331 332 330 330 328 328 327 327 327 326 325 323 321 322 322 322 323 319
303 306 306 307 308 309 309 310 310 310 311 313 313 314 314 314 315 316 319 323 329 331 332 331 332 333 332 331 329 325 328 328 327 327 326 324 321 321 322 321 322 322 318
305 305 306 306 306 307 308 309 309 309 310 310 310 311 311 311 311 312 312 316 320 323 329 329 329 331 332 330 328 325 328 328 328 327 325 321 321 321 322 321 322 322 318
304 303 304 308 309 309 309 309 309 308 309 309 310 310 311 311 311 312 313 317 320 321 322 326 324 326 330 330 328 325 327 328 328 327 322 321 321 321 322 321 320 320 320
298 302 301 305 306 305 306 307 306 306 307 309 309 309 310 310 310 311 313 315 320 321 321 322 322 321 329 329 326 326 326 327 328 327 321 322 321 320 322 321 320 321 320
301 304 300 303 305 303 305 305 304 304 305 306 307 308 309 309 308 309 312 316 321 321 322 322 322 325 326 327 327 326 327 327 327 327 320 321 320 320 321 321 321 320 316
296 294 297 300 302 303 303 302 301 302 302 302 304 306 307 309 310 310 313 317 320 322 323 322 321 325 325 326 327 327 327 327 327 326 321 320 320 320 321 320 319 320 319
289 291 295 296 296 299 299 298 298 297 299 302 303 304 304 308 310 311 313 317 321 323 323 322 322 323 324 326 325 327 326 325 324 321 321 321 321 321 321 320 320 319 317
293 291 293 293 292 294 293 293 294 294 297 299 301 303 304 308 309 312 314 319 322 322 322 323 323 322 324 325 324 325 325 323 321 321 321 321 320 320 320 319 318 317 315
291 292 294 294 294 294 292 292 293 292 291 295 298 299 301 306 307 311 315 318 320 321 322 323 323 322 323 323 324 324 324 322 321 321 321 320 320 319 319 318 318 318 315
290 291 291 292 292 292 292 292 293 294 290 291 294 296 299 301 304 308 314 316 318 320 321 322 320 322 323 324 323 323 323 321 321 321 321 320 320 319 319 318 318 317 318
290 290 291 292 292 292 292 292 291 291 291 291 292 294 296 299 301 305 309 316 318 319 320 320 320 321 322 322 322 323 320 321 321 321 321 320 319 319 318 318 317 316 316
289 289 290 290 291 291 290 290 288 289 290 291 291 289 290 293 298 301 303 309 315 317 317 318 317 320 321 320 320 320 321 321 320 320 319 318 318 316 316 315 315 315 314
288 289 289 290 290 290 290 290 289 289 289 289 289 288 288 288 293 296 298 301 303 307 310 310 313 315 318 318 319 320 320 320 319 318 318 317 315 313 312 313 313 313 312
286 286 288 287 288 289 288 288 288 287 287 287 288 286 283 286 287 290 293 294 297 297 300 301 305 308 312 316 316 316 315 316 317 317 316 312 312 309 308 307 307 307 307
285 285 285 285 286 286 286 287 286 287 287 288 287 287 287 285 288 290 291 292 294 294 297 296 297 300 299 303 304 303 306 310 311 310 309 307 307 304 304 302 302 302 302
284 285 285 285 286 284 283 283 285 287 285 286 286 286 286 286 288 289 289 290 292 293 294 291 291 292 292 294 294 297 297 298 300 302 303 301 300 298 299 298 297 297 296
283 284 284 283 283 283 281 280 280 280 283 285 285 285 285 285 288 289 289 290 291 289 286 284 285 286 288 290 289 290 290 289 291 293 293 295 294 294 294 293 293 292 290
282 282 282 282 282 280 279 279 279 279 279 279 283 285 284 285 286 288 287 286 284 284 284 285 284 283 283 284 286 286 288 288 288 289 289 290 290 291 290 289 288 288 287
279 281 281 279 279 278 278 278 278 278 278 277 277 279 281 284 285 284 284 284 283 282 282 283 283 284 283 283 284 284 285 286 286 287 287 287 287 288 287 287 286 286 284
278 278 279 278 278 277 276 276 276 276 276 276 275 277 278 277 278 280 281 281 281 281 281 281 282 283 283 283 283 283 283 283 284 284 284 284 284 283 282 281 280 280 280
277 277 276 276 275 275 275 274 274 274 274 274 274 274 276 276 276 277 277 277 278 279 280 280 280 280 281 281 282 282 282 281 281 281 280 280 281 280 280 280 280 279 279
275 275 275 275 275 274 274 273 273 273 273 273 272 273 273 274 275 275 275 275 275 276 277 277 277 277 278 278 278 279 279 279 279 279 279 279 279 279 279 279 278 278 278
275 274 274 274 273 273 273 273 272 272 271 271 271 271 271 272 273 273 273 274 274 274 275 275 275 275 275 276 276 276 277 277 277 277 277 278 278 277 277 277 277 277 277
273 273 273 273 273 272 272 272 271 271 271 270 270 270 270 270 271 272 272 272 272 273 273 273 274 274 274 274 274 275 275 275 275 276 276 276 276 276 276 276 276 276 276
272 272 272 272 271 271 271 271 271 270 270 269 269 269 269 269 270 271 271 271 271 272 272 272 272 272 273 273 273 273 274 274 274 275 275 275 275 275 275 275 275 275 274